Flag for Russia Weather past 2 weeks in Kazan, Russia

Now
68 °F

Sunny.


Feels Like: 68 °F
Forecast: 55 / 66 °F
Wind: 15 mph from Northwest

Location: Kazan'

Current Time: Jul 25, 2014 at 4:15:58 PM

Latest Report: Jul 25, 2014 at 3:30 PM


Visibility: 10 mi

Pressure: 29.89 "Hg

Humidity: 33%

Dew point: 37 °F

Location of KazanLocation

Historic Weather in Kazan — Graph

°F

Kazan temperature yesterday

Maximum temperature yesterday: 81 °F (at 4:00 PM)
Minimum temperature yesterday: 55 °F (at 5:00 AM)
Average temperature yesterday: 68 °F

Past Weeks' High & Low Weather Summary

 TemperatureHumidityPressure
High90 °F (Jul 16, 1:30 PM)100% (Jul 21, 5:00 AM)30.15 "Hg (Jul 21, 5:00 AM)
Low45 °F (Jul 21, 4:30 AM)25% (Jul 14, 2:00 PM)29.71 "Hg (Jul 20, 2:00 PM)
Average65 °F59%29.96 "Hg
* Reported Jul 10 3:00 PM — Jul 25 3:00 PM, Kazan, Weather by CustomWeather, © 2014

Note: Actual official high and low records may vary slightly from our data, if they occured in-between our weather recording intervals... More about our weather records

Advertising

Kazan weather history for previous 24 hours

 ConditionsComfort  
Time TempWeatherWind HumidityBarometerVisibility
3:00 PM
Jul 25
68 °FSunny.13 mph35%29.89 "Hg10 mi
2:30 PM66 °FSunny.13 mph35%29.89 "Hg10 mi
2:00 PM66 °FSunny.13 mph35%29.92 "Hg10 mi
1:30 PM66 °FSunny.10 mph32%29.92 "Hg10 mi
1:00 PM64 °FSunny.15 mph34%29.92 "Hg10 mi
12:30 PM63 °FSunny.15 mph39%29.92 "Hg10 mi
12:00 PM63 °FSunny.13 mph42%29.92 "Hg10 mi
11:30 AM63 °FSunny.13 mph39%29.92 "Hg10 mi
11:00 AM63 °FSunny.10 mph42%29.92 "Hg10 mi
10:30 AM61 °FSunny.10 mph52%29.92 "Hg10 mi
10:00 AM59 °FSunny.13 mph51%29.92 "Hg10 mi
9:30 AM61 °FSunny.10 mph52%29.92 "Hg10 mi
9:00 AM59 °FSunny.8 mph55%29.92 "Hg10 mi
8:30 AM57 °FSunny.10 mph59%29.92 "Hg10 mi
8:00 AM57 °FSunny.8 mph63%29.92 "Hg10 mi
7:30 AM55 °FSunny.6 mph67%29.92 "Hg10 mi
6:30 AM54 °FSunny.8 mph72%29.89 "Hg10 mi
6:00 AM54 °FSunny.8 mph77%29.89 "Hg10 mi
5:30 AM52 °FClear.8 mph82%29.89 "Hg10 mi
5:00 AM52 °FClear.10 mph82%29.86 "Hg10 mi
4:30 AM52 °FClear.10 mph82%29.86 "Hg10 mi
4:00 AM54 °FClear.8 mph82%29.86 "Hg10 mi
3:30 AM55 °FClear.8 mph82%29.86 "Hg10 mi
3:00 AM57 °FClear.8 mph77%29.83 "Hg10 mi
2:30 AM57 °FPassing clouds.6 mph88%29.83 "HgN/A
2:00 AM59 °FPassing clouds.8 mph88%29.83 "HgN/A
1:30 AM59 °FPassing clouds.6 mph94%29.83 "HgN/A
1:00 AM59 °FPartly cloudy.6 mph94%29.83 "HgN/A
12:30 AM61 °FPartly cloudy.6 mph88%29.83 "HgN/A
12:00 AM63 °FPassing clouds.6 mph83%29.83 "HgN/A
11:30 PM
Jul 24
61 °FPassing clouds.6 mph88%29.83 "HgN/A
11:00 PM61 °FPassing clouds.10 mph88%29.83 "HgN/A
10:30 PM61 °FThunderstorms. Passing clouds.13 mph88%29.83 "HgN/A
10:00 PM61 °FSprinkles. Partly sunny.31 mph94%29.86 "HgN/A
9:30 PM66 °FBroken clouds.6 mph60%29.83 "HgN/A
9:00 PM68 °FBroken clouds.6 mph56%29.83 "HgN/A
8:30 PM70 °FBroken clouds.6 mph57%29.83 "HgN/A
8:00 PM72 °FBroken clouds.3 mph57%29.80 "HgN/A
7:30 PM72 °FBroken clouds.3 mph50%29.80 "HgN/A
7:00 PM72 °FBroken clouds.3 mph47%29.80 "HgN/A
6:30 PM73 °FBroken clouds.8 mph47%29.83 "HgN/A
6:00 PM75 °FBroken clouds.10 mph39%29.83 "HgN/A
5:30 PM77 °FBroken clouds.3 mph32%29.83 "HgN/A
5:00 PM75 °FPartly sunny.10 mph36%29.83 "HgN/A
4:30 PM77 °FBroken clouds.10 mph32%29.83 "HgN/A
4:00 PM81 °FBroken clouds.10 mph28%29.83 "HgN/A
Weather by CustomWeather, © 2014

See weather overviewHow to use our weather pages